Location: Domachevo
(51.7500°N, 23.6000°E)
Time: 15:35:20
(UTC+03:00)

Genesis I - Visible Passes

Search period start: 21 June 2018 00:00
Search period end: 01 July 2018 00:00
Orbit: 481 x 547 km, 64.5° (Epoch: 20 June)

Date Brightness Start Highest point End Pass type
(mag) Time Alt. Az. Time Alt. Az. Time Alt. Az.
21 Jun 6.4 01:09:47 10° NNW 01:12:26 16° NNE 01:15:03 10° NE visible
21 Jun 4.8 02:47:11 10° NW 02:51:05 40° NE 02:54:58 10° ESE visible
21 Jun 6.5 23:14:32 10° NW 23:16:54 15° N 23:19:17 10° NNE visible
22 Jun 6.4 00:53:25 10° NNW 00:56:04 16° NNE 00:58:42 10° NE visible
22 Jun 4.8 02:30:50 10° NW 02:34:44 40° NE 02:38:36 10° ESE visible
22 Jun 3.9 04:08:35 10° NW 04:12:23 37° WSW 04:16:08 10° S visible
22 Jun 6.4 22:58:11 10° NW 23:00:32 15° N 23:02:55 10° NNE visible
23 Jun 6.3 00:37:03 10° NNW 00:39:42 16° NNE 00:42:21 10° NE visible
23 Jun 4.7 02:14:28 10° NW 02:18:22 40° NE 02:22:14 10° ESE visible
23 Jun 3.9 03:52:13 10° NW 03:56:01 37° WSW 03:59:46 10° S visible
23 Jun 6.4 22:41:49 10° NW 22:44:11 15° N 22:46:33 10° NNE visible
24 Jun 6.2 00:20:41 10° NNW 00:23:20 16° NNE 00:25:59 10° NE visible
24 Jun 4.7 01:58:05 10° NW 02:02:00 40° NE 02:05:52 10° ESE visible
24 Jun 3.9 03:35:52 10° NW 03:39:38 36° WSW 03:43:23 10° S visible
25 Jun 6.2 00:04:19 10° NNW 00:06:59 16° NNE 00:09:38 10° NE visible
25 Jun 4.6 01:41:43 10° NW 01:45:38 41° NE 01:49:31 10° ESE visible
25 Jun 3.9 03:19:29 10° NW 03:23:16 36° WSW 03:27:00 10° S visible
25 Jun 6.1 23:47:57 10° NNW 23:50:36 16° NNE 23:53:17 10° NE visible
26 Jun 4.6 01:25:21 10° NW 01:29:16 41° NE 01:33:09 10° ESE visible
26 Jun 3.9 03:03:08 10° NW 03:06:54 36° WSW 03:09:51 15° S visible
26 Jun 6.1 23:31:35 10° NNW 23:34:15 16° NNE 23:36:55 10° NE visible
27 Jun 4.5 01:08:58 10° NW 01:12:54 41° NE 01:16:47 10° ESE visible
27 Jun 4.0 02:46:45 10° NW 02:50:31 35° WSW 02:52:50 19° S visible
27 Jun 6.0 23:15:12 10° NNW 23:17:52 17° NNE 23:20:33 10° NE visible
28 Jun 4.5 00:52:36 10° NW 00:56:32 41° NE 01:00:25 10° ESE visible
28 Jun 4.0 02:30:23 10° NW 02:34:09 35° WSW 02:36:00 23° S visible
28 Jun 6.0 22:58:49 10° NNW 23:01:31 17° NNE 23:04:12 10° ENE visible
29 Jun 4.4 00:36:13 10° NW 00:40:09 42° NE 00:44:03 10° ESE visible
29 Jun 4.0 02:14:01 10° WNW 02:17:46 35° WSW 02:19:20 25° SSW visible
29 Jun 6.0 22:42:27 10° NNW 22:45:08 17° NNE 22:47:49 10° ENE visible
30 Jun 4.4 00:19:51 10° NW 00:23:46 42° NE 00:27:40 10° ESE visible
30 Jun 4.1 01:57:39 10° WNW 02:01:23 34° WSW 02:02:48 26° SSW visible
